Regional Weather Roundup
Issued by NWS Cleveland, OH

Home | Current Version | Previous Version | Text Only | Print | Product List | Glossary Off
Versions: 1 2 3 4 5 6 7 8 9 10 11 12 13 14 15 16 17 18 19 20 21 22 23 24 25 26 27 28 29 30 31 32 33 34 35 36 37 38 39 40 41 42 43 44 45 46 47 48 49 50

000
ASUS41 KCLE 301210
RWRCLE
OHIO REGIONAL WEATHER ROUNDUP
NATIONAL WEATHER SERVICE WILMINGTON, OH
800 AM EDT THU OCT 30 2014

NOTE: "FAIR" INDICATES FEW OR NO CLOUDS BELOW 12,000 FEET WITH NO
SIGNIFICANT WEATHER AND/OR OBSTRUCTIONS TO VISIBILITY.

OHZ001>008-015>018-024>027-034-035-043-044-301300-
   NORTHWEST OHIO

CITY           SKY/WX    TMP DP  RH WIND       PRES   REMARKS
DEFIANCE       CLOUDY    37  34  89 CALM      30.14S
FINDLAY        CLEAR     39  35  86 CALM      30.13S
TOLEDO EXPRESS CLEAR     32  30  92 CALM      30.13S
TOLEDO METCALF CLEAR     36  32  85 CALM      30.15R
LIMA           CLOUDY    42  36  79 CALM      30.14R
$$

OHZ009>014-019>023-028>033-038-089-301300-
   NORTHEAST OHIO

CITY           SKY/WX    TMP DP  RH WIND       PRES   REMARKS
CLE-HOPKINS    LGT RAIN  43  42  97 W5        30.13R
CLE-LAKEFRONT  CLOUDY   N/A N/A N/A N12       30.11R
CUY CO. ARPT   MOCLDY    46  39  76 N7        30.11R
LORAIN-ELYRIA  CLOUDY    41  39  93 W5        30.12R
ASHTABULA      LGT RAIN  44  41  89 CALM      30.09R
AKRON-CANTON   MOCLDY    38  35  89 W5        30.10R FOG
WOOSTER        CLEAR     34  32  92 CALM      30.11S
MANSFIELD      CLEAR     36  35  96 W6        30.11S
YOUNGSTOWN     LGT RAIN  42  40  92 W7        30.08R
$$

OHZ042-051>053-060>062-070>072-077>081-301300-
  SOUTHWEST OHIO

CITY           SKY/WX    TMP DP  RH WIND       PRES   REMARKS
CINC-COVINGTON PTCLDY    38  32  79 NW5       30.16R
CINC-LUNKEN    CLEAR     36  35  96 CALM      30.18R
HAMILTON       CLOUDY    40  37  89 CALM      30.17S
DAYTON         CLOUDY    43  36  76 CALM      30.16S
WRIGHT-PAT AFB CLOUDY    43  35  74 NW5       30.15S
DAYTON GENERAL CLOUDY    42  35  76 N3        30.14S
WILMINGTON     CLOUDY    42  34  73 NW7       30.14S
$$

OHZ036-037-039>041-045>050-054>059-063>069-073>076-082>088-301300-
  CENTRAL AND SOUTHEAST OHIO

CITY           SKY/WX    TMP DP  RH WIND       PRES   REMARKS
COLUMBUS       PTCLDY    41  35  79 CALM      30.13S
OSU AIRPORT    PTCLDY    40  34  79 NW7       30.14R
BOLTON FIELD   CLOUDY    41  37  87 CALM      30.14F
RICKENBACK AFB MOCLDY    39  35  86 CALM      30.14S
NEWARK         CLEAR     32  28  85 CALM      30.13S FOG
MARION         CLEAR     36  34  92 W5        30.14R
LANCASTER      CLEAR     31  29  92 CALM      30.15R FOG
ZANESVILLE     CLEAR     29  27  92 CALM      30.13R
NEW PHILLY     CLEAR     34  31  88 CALM      30.13R
$$



USA.gov is the U.S. government's official web portal to all federal, state and local government web resources and services.